星链-37943(STARLINK-37943)

导读

STARLINK-37943(NORAD编号69666)是美国SpaceX公司星链低轨卫星互联网星座的组网卫星,隶属于星链大规模部署批次,由猎鹰9号火箭发射入轨,当前处于近地轨道运行状态。该卫星为星链V2系列平台设计,质量约数百千克,设计寿命5年以上,运行于高度约500-570公里的倾斜近地轨道,主要承担低轨宽带互联网通信任务,为全球地面用户提供高速低延迟的卫星互联网接入服务,是星链全球组网、覆盖偏远地区网络需求的组成部分,截至2026年6月仍保持在轨运行。

基本信息
目录编号:
69666
目录名称:
STARLINK-37943
国际标识:
2026-143T
轨道中心:
EARTH
卫星名称:
星链-37943
卫星全名:
星链-37943(STARLINK-37943)
卫星状态:
在轨 (已飞行76 天)
发射日期:
2026-06-21 UTC
国别 :
美国 (US)
星等 :
--
轨道信息
数据来源 国际轨道数据 AOE轨道数据
星历时间 2026-09-04T22:13:55+0800
16小时前
查看轨道信息
2026-09-03T23:00:00+0800
1天前
查看轨道信息
半长轴 6843.662km 6843.701km
偏心率 0.0000959 0.0001303
轨道倾角 97.285° 97.287°
近地点辐角 132.171° 109.301°
升交点赤经 290.994° 290.038°
平近点角 227.962° 310.598°
近地点 464.868km 464.672km
远地点 466.182km 466.456km
周期 93.906分钟 93.907分钟
每日圈数 15.334514 15.334383
详细信息
固有亮度:
5
最大亮度:
2.5
卫星平台:
Starlink V1.0
覆盖范围:
全球
运营商:
太空探索技术公司
运营商所在国:
美国
制造商(研发单位):
太空探索技术公司
制造商所在国:
美国
使用方式:
暂无
卫星简介
Starlink 计划是 SpaceX 推出的全球卫星互联网项目,通过发射低轨道卫星,为全球尤其是偏远地区提供高速、低延迟的互联网服务。自 2019 年起,Starlink 已部署数千颗卫星,旨在缩小全球数字鸿沟,推动互联网普及。该项目还为军事、航空等行业提供通信支持,带来广泛经济效益。
2D轨道图
3D轨道图
轨道高度分析图
轨道倾角分析图
轨道综合分析图
查看轨道综合分析图
交会数据列表
事件ID 空间交会对象 最接近时刻(TCA) 交会距离 交会风险概率(CRP) 交会风险指数(CRI) 操作
CDM_260901-203606-296806-966622
2026-09-01T
20:36:01+0000
2.420 km
极远距离
1.840099E-6 低风险 0.4
CDM_260907-173503-803906-966621
2026-09-07T
17:35:29+0000
2.626 km
极远距离
1.628348E-6 低风险 0.39
CDM_260903-020205-925506-966621
2026-09-03T
02:02:08+0000
2.881 km
极远距离
1.377979E-6 低风险 0.38